Flight Track Log - Related Links

Times and Time Zones

All times are in EDT time to prevent confusion due to time zone crossing. See the EJA583 flight status page for this flight to view local times or setup timezone preferences in your user account.

Time Position Orientation Groundspeed Altitude Reporting Facility
EDT Latitude Longitude Course Direction KTS MPH feet Rate Location/Type
Wed 03:15:47 PM 34.7136 -92.2494 248° West 176 203 1,300  Level Memphis Center
Wed 03:16:35 PM 34.6983 -92.2944 248° West 207 238 3,700 3,106 Climbing Memphis Center
Wed 03:17:12 PM 34.6808 -92.3447 247° West 244 281 5,700 2,797 Climbing Memphis Center
Wed 03:19:03 PM 34.6303 -92.4875 247° West 290 334 10,600 3,018 Climbing Memphis Center
Wed 03:20:03 PM 34.6183 -92.5728 260° West 285 328 14,300 3,100 Climbing Memphis Center
Wed 03:21:03 PM 34.6483 -92.6519 295° West 254 292 16,800 1,350 Climbing Memphis Center
Wed 03:22:03 PM 34.7072 -92.7344 311° West 284 327 17,000 100 Climbing Memphis Center
Wed 03:23:03 PM 34.7872 -92.8150 320° Northwest 329 379 17,000  Level Memphis Center
Wed 03:24:03 PM 34.8647 -92.8931 320° Northwest 352 405 17,000  Level Memphis Center
Wed 03:25:03 PM 34.9428 -92.9639 323° Northwest 357 411 17,000  Level Memphis Center
Wed 03:26:03 PM 35.0225 -93.0347 324° Northwest 357 411 17,000  Level Memphis Center
Wed 03:27:03 PM 35.1025 -93.1033 325° Northwest 357 411 17,000 -50 Level Memphis Center
Wed 03:28:03 PM 35.1864 -93.1772 324° Northwest 363 418 16,900 -50 Descending Memphis Center
Wed 03:29:03 PM 35.2681 -93.2511 324° Northwest 363 418 16,900  Level Memphis Center
Wed 03:30:02 PM 35.3453 -93.3303 320° Northwest 363 418 16,900  Level Memphis Center
Wed 03:31:03 PM 35.4247 -93.4119 320° Northwest 368 423 16,900  Level Memphis Center
Wed 03:32:03 PM 35.5019 -93.4939 319° Northwest 373 429 16,900  Level Memphis Center
Wed 03:33:03 PM 35.5811 -93.5761 320° Northwest 373 429 16,900 50 Level Memphis Center
Wed 03:34:03 PM 35.6606 -93.6558 321° Northwest 373 429 17,000 -300 Climbing Memphis Center
Wed 03:35:03 PM 35.7397 -93.7381 320° Northwest 373 429 16,300 -1,300 Descending Memphis Center
Wed 03:36:03 PM 35.8125 -93.8153 319° Northwest 368 423 14,400 -1,850 Descending Memphis Center
Wed 03:37:03 PM 35.8856 -93.8903 320° Northwest 363 418 12,600 -1,800 Descending Memphis Center
Wed 03:38:03 PM 35.9542 -93.9650 319° Northwest 343 395 10,800 -1,700 Descending Memphis Center
Wed 03:39:03 PM 36.0192 -94.0294 321° Northwest 325 374 9,200 -1,600 Descending Memphis Center
Wed 03:40:03 PM 36.0878 -94.1044 319° Northwest 308 354 7,600 -1,500 Descending Memphis Center
Wed 03:41:03 PM 36.1444 -94.1608 321° Northwest 283 326 6,200 -1,600 Descending Memphis Center
Wed 03:42:03 PM 36.2078 -94.2025 332° Northwest 268 308 4,400 -1,513 Descending Memphis Center
Wed 03:43:02 PM 36.2650 -94.2411 331° Northwest 243 280 3,200 -850 Descending Memphis Center
Wed 03:44:03 PM 36.3139 -94.2769 329° Northwest 223 257 2,700 -550 Descending Memphis Center
Wed 03:45:02 PM 36.3275 -94.3111 296° West 153 176 2,100 -450 Descending Memphis Center
Wed 03:46:03 PM 36.3261 -94.3522 268° West 116 133 1,800 7,388 Descending Memphis Center
Wed 03:47:03 PM 36.3394 -94.3914 293° West 116 133 17,000 15,200 Climbing Memphis Center

Login

Don't have an account? Register now (free) for customized features, flight alerts, and more!